Home   Weather   Iași   Past weeks
Flag for Romania

Past Weather in Iași, Romania — Yesterday and Last 2 Weeks

Now
25 °F

Overcast.


Feels Like: 18 °F
Forecast: 35 / 26 °F
Wind: 6 mph from Southeast

Location: Iasi Airport

Current Time: Jan 22, 2019 at 8:24:37 am

Latest Report: Jan 22, 2019 at 7:30 am


Visibility: N/A

Pressure: 30.15 "Hg

Humidity: 74%

Dew Point: 18 °F

Location of IașiLocation

Past Weather in Iași — Graph

°F

Iași Temperature Yesterday

Maximum temperature yesterday: 30 °F (at 12:00 am)
Minimum temperature yesterday: 27 °F (at 5:30 am)
Average temperature yesterday: 28 °F

High & Low Weather Summary for the Past Weeks

 TemperatureHumidityPressure
High39 °F (Jan 16, 10:30 am)93% (Jan 10, 5:30 pm)30.30 "Hg (Jan 10, 5:30 pm)
Low9 °F (Jan 8, 4:30 am)41% (Jan 15, 4:00 pm)29.24 "Hg (Jan 14, 12:30 pm)
Average25 °F77%29.89 "Hg
* Reported Jan 7 7:00 am — Jan 22 7:00 am, Iași. Weather by CustomWeather, © 2019

Note: Actual official high and low records may vary slightly from our data, if they occured in-between our weather recording intervals... More about our weather records

Advertising

Iași Weather History for the Previous 24 Hours

Scroll right to see more
 ConditionsComfort  
Time TempWeatherWind HumidityBarometerVisibility
7:00 am
Tue, Jan 22
25 °FOvercast.6 mph80%30.18 "HgN/A
6:00 am25 °FOvercast.5 mph74%30.18 "HgN/A
5:30 am25 °FOvercast.5 mph80%30.18 "HgN/A
5:00 am25 °FOvercast.3 mph80%30.18 "HgN/A
4:30 am25 °FOvercast.5 mph80%30.18 "HgN/A
3:30 am27 °FOvercast.2 mph69%30.18 "HgN/A
3:00 am27 °FOvercast.No wind64%30.21 "HgN/A
2:30 am27 °FOvercast.No wind64%30.21 "HgN/A
2:00 am27 °FOvercast.No wind69%30.21 "HgN/A
1:00 am27 °FOvercast.1 mph64%30.21 "HgN/A
12:30 am27 °FOvercast.2 mph64%30.24 "HgN/A
12:00 am27 °FOvercast.No wind69%30.24 "HgN/A
11:30 pm
Mon, Jan 21
27 °FOvercast.No wind69%30.24 "HgN/A
11:00 pm27 °FOvercast.3 mph69%30.24 "HgN/A
10:30 pm27 °FOvercast.3 mph69%30.24 "HgN/A
10:00 pm27 °FOvercast.2 mph69%30.21 "HgN/A
9:30 pm27 °FOvercast.5 mph69%30.21 "HgN/A
9:00 pm27 °FOvercast.3 mph74%30.21 "HgN/A
8:30 pm27 °FOvercast.3 mph74%30.21 "HgN/A
8:00 pm27 °FOvercast.5 mph74%30.21 "HgN/A
7:30 pm27 °FOvercast.6 mph74%30.21 "HgN/A
7:00 pm27 °FOvercast.5 mph74%30.21 "HgN/A
6:30 pm27 °FOvercast.7 mph69%30.21 "HgN/A
6:00 pm27 °FOvercast.6 mph74%30.21 "HgN/A
5:00 pm27 °FPassing clouds.6 mph74%30.18 "HgN/A
4:30 pm27 °FPartly sunny.6 mph74%30.18 "HgN/A
4:00 pm27 °FOvercast.8 mph74%30.18 "HgN/A
3:30 pm28 °FOvercast.8 mph69%30.18 "HgN/A
3:00 pm27 °FOvercast.12 mph74%30.18 "HgN/A
2:30 pm28 °FOvercast.15 mph64%30.18 "HgN/A
2:00 pm28 °FOvercast.13 mph64%30.18 "HgN/A
1:30 pm28 °FOvercast.10 mph69%30.18 "HgN/A
1:00 pm28 °FOvercast.10 mph69%30.18 "HgN/A
12:30 pm28 °FOvercast.12 mph69%30.15 "HgN/A
12:00 pm28 °FOvercast.12 mph74%30.15 "HgN/A
11:30 am28 °FMore clouds than sun.12 mph74%30.15 "HgN/A
11:00 am28 °FOvercast.13 mph80%30.15 "HgN/A
10:30 am28 °FLight snow. Overcast.13 mph80%30.15 "Hg5 mi
10:00 am28 °FLight snow. More clouds than sun.13 mph80%30.12 "HgN/A
9:30 am28 °FOvercast.12 mph74%30.12 "HgN/A
8:30 am28 °FOvercast.12 mph74%30.09 "HgN/A
8:00 am28 °FLight snow. More clouds than sun.12 mph80%30.09 "Hg5 mi
Weather by CustomWeather, © 2019

See weather overview